Grub im Wienerwald
Wetterdaten: aktuell Mittwoch, 23.10.2019 23:27
Datum Zeit Temp. A. Feuchte A. Luftdruck Regen Wind Richtung Richtung Sonnenschein UV Solar Taupunkt Windchill Windben
23.10.2019 23:27 7,7 C 95 % 1013,6 hPa 0,0 l/m 0,0 km/h S-SO 147 0 min 0,0 UV-I 0 W/m 7,0 C 7,7 C 0,0 km/h
23.10.2019 23:24 7,7 C 95 % 1013,7 hPa 0,0 l/m 0,0 km/h S-SO 147 0 min 0,0 UV-I 0 W/m 7,0 C 7,7 C 0,0 km/h
23.10.2019 23:21 7,8 C 95 % 1013,6 hPa 0,0 l/m 0,0 km/h S-SO 147 0 min 0,0 UV-I 0 W/m 7,0 C 7,8 C 0,0 km/h
23.10.2019 23:18 7,8 C 94 % 1013,7 hPa 0,0 l/m 0,0 km/h S-SO 147 0 min 0,0 UV-I 0 W/m 6,9 C 7,8 C 0,0 km/h
23.10.2019 23:15 7,9 C 94 % 1013,7 hPa 0,0 l/m 0,0 km/h S-SO 147 0 min 0,0 UV-I 0 W/m 7,0 C 7,9 C 0,0 km/h
23.10.2019 23:12 7,9 C 94 % 1013,7 hPa 0,0 l/m 0,0 km/h S-SO 147 0 min 0,0 UV-I 0 W/m 7,0 C 7,9 C 0,0 km/h
23.10.2019 23:09 8,0 C 94 % 1013,7 hPa 0,0 l/m 0,0 km/h S-SO 147 0 min 0,0 UV-I 0 W/m 7,1 C 8,0 C 0,0 km/h
23.10.2019 23:06 8,1 C 95 % 1013,7 hPa 0,0 l/m 0,0 km/h S-SO 147 0 min 0,0 UV-I 0 W/m 7,3 C 8,1 C 0,0 km/h
23.10.2019 23:03 8,1 C 94 % 1013,7 hPa 0,0 l/m 0,0 km/h S-SO 147 0 min 0,0 UV-I 0 W/m 7,2 C 8,1 C 0,0 km/h
23.10.2019 23:00 8,1 C 94 % 1013,7 hPa 0,0 l/m 0,0 km/h S-SO 147 0 min 0,0 UV-I 0 W/m 7,2 C 8,1 C 0,0 km/h
23.10.2019 22:57 8,2 C 94 % 1013,7 hPa 0,0 l/m 0,0 km/h S-SO 147 0 min 0,0 UV-I 0 W/m 7,3 C 8,2 C 0,0 km/h
23.10.2019 22:54 8,3 C 94 % 1013,7 hPa 0,0 l/m 0,0 km/h S-SO 147 0 min 0,0 UV-I 0 W/m 7,4 C 8,3 C 0,0 km/h
23.10.2019 22:51 8,3 C 94 % 1013,7 hPa 0,0 l/m 0,0 km/h S-SO 147 0 min 0,0 UV-I 0 W/m 7,4 C 8,3 C 0,0 km/h
23.10.2019 22:48 8,3 C 94 % 1013,7 hPa 0,0 l/m 0,0 km/h S-SO 147 0 min 0,0 UV-I 0 W/m 7,4 C 8,3 C 0,0 km/h
23.10.2019 22:45 8,4 C 94 % 1013,7 hPa 0,0 l/m 0,0 km/h S-SO 147 0 min 0,0 UV-I 0 W/m 7,5 C 8,4 C 0,0 km/h
23.10.2019 22:42 8,5 C 94 % 1013,6 hPa 0,0 l/m 0,0 km/h S-SO 147 0 min 0,0 UV-I 0 W/m 7,6 C 8,5 C 0,0 km/h
23.10.2019 22:39 8,6 C 94 % 1013,7 hPa 0,0 l/m 0,0 km/h S-SO 147 0 min 0,0 UV-I 0 W/m 7,7 C 8,6 C 0,0 km/h
23.10.2019 22:36 8,6 C 94 % 1013,7 hPa 0,0 l/m 0,0 km/h S-SO 147 0 min 0,0 UV-I 0 W/m 7,7 C 8,6 C 0,0 km/h
23.10.2019 22:33 8,7 C 94 % 1013,7 hPa 0,0 l/m 0,0 km/h S-SO 147 0 min 0,0 UV-I 0 W/m 7,8 C 8,7 C 0,0 km/h
23.10.2019 22:30 8,7 C 94 % 1013,7 hPa 0,0 l/m 0,0 km/h S-SO 147 0 min 0,0 UV-I 0 W/m 7,8 C 8,7 C 0,0 km/h
23.10.2019 22:27 8,7 C 94 % 1013,8 hPa 0,0 l/m 0,0 km/h S-SO 147 0 min 0,0 UV-I 0 W/m 7,8 C 8,7 C 0,0 km/h
23.10.2019 22:24 8,8 C 94 % 1013,8 hPa 0,0 l/m 0,0 km/h S-SO 147 0 min 0,0 UV-I 0 W/m 7,9 C 8,8 C 0,0 km/h
23.10.2019 22:21 8,9 C 94 % 1013,7 hPa 0,0 l/m 0,0 km/h S-SO 147 0 min 0,0 UV-I 0 W/m 8,0 C 8,9 C 0,0 km/h
23.10.2019 22:18 8,9 C 94 % 1013,7 hPa 0,0 l/m 0,0 km/h S-SO 147 0 min 0,0 UV-I 0 W/m 8,0 C 8,9 C 0,0 km/h
23.10.2019 22:15 9,0 C 94 % 1013,7 hPa 0,0 l/m 0,0 km/h S-SO 147 0 min 0,0 UV-I 0 W/m 8,1 C 9,0 C 0,0 km/h
23.10.2019 22:12 9,1 C 94 % 1013,7 hPa 0,0 l/m 0,0 km/h S-SO 147 0 min 0,0 UV-I 0 W/m 8,2 C 9,1 C 0,0 km/h
23.10.2019 22:09 9,1 C 94 % 1013,7 hPa 0,0 l/m 0,0 km/h S-SO 147 0 min 0,0 UV-I 0 W/m 8,2 C 9,1 C 0,0 km/h
23.10.2019 22:06 9,2 C 94 % 1013,7 hPa 0,0 l/m 0,0 km/h S-SO 147 0 min 0,0 UV-I 0 W/m 8,3 C 9,2 C 0,0 km/h
23.10.2019 22:03 9,2 C 94 % 1013,8 hPa 0,0 l/m 0,0 km/h S-SO 147 0 min 0,0 UV-I 0 W/m 8,3 C 9,2 C 0,0 km/h
23.10.2019 22:00 9,3 C 94 % 1013,8 hPa 0,0 l/m 0,0 km/h S-SO 147 0 min 0,0 UV-I 0 W/m 8,4 C 9,3 C 1,6 km/h
23.10.2019 21:57 9,4 C 93 % 1013,8 hPa 0,0 l/m 0,5 km/h S-SO 147 0 min 0,0 UV-I 0 W/m 8,3 C 9,4 C 3,2 km/h
23.10.2019 21:54 9,4 C 93 % 1013,8 hPa 0,0 l/m 0,2 km/h S-SO 147 0 min 0,0 UV-I 0 W/m 8,3 C 9,4 C 3,2 km/h
23.10.2019 21:51 9,5 C 93 % 1013,8 hPa 0,0 l/m 0,2 km/h S-SO 147 0 min 0,0 UV-I 0 W/m 8,4 C 9,5 C 1,6 km/h
23.10.2019 21:48 9,6 C 93 % 1013,8 hPa 0,0 l/m 0,0 km/h S-SO 147 0 min 0,0 UV-I 0 W/m 8,5 C 9,6 C 0,0 km/h
23.10.2019 21:45 9,6 C 93 % 1013,7 hPa 0,0 l/m 0,0 km/h S-SO 147 0 min 0,0 UV-I 0 W/m 8,5 C 9,6 C 0,0 km/h
23.10.2019 21:42 9,7 C 93 % 1013,7 hPa 0,0 l/m 0,0 km/h S-SO 147 0 min 0,0 UV-I 0 W/m 8,6 C 9,7 C 0,0 km/h
23.10.2019 21:39 9,8 C 93 % 1013,7 hPa 0,0 l/m 0,0 km/h S-SO 147 0 min 0,0 UV-I 0 W/m 8,7 C 9,8 C 0,0 km/h
23.10.2019 21:36 9,9 C 93 % 1013,7 hPa 0,0 l/m 0,0 km/h S-SO 147 0 min 0,0 UV-I 0 W/m 8,8 C 9,9 C 0,0 km/h
23.10.2019 21:33 10,1 C 93 % 1013,7 hPa 0,0 l/m 0,0 km/h S-SO 147 0 min 0,0 UV-I 0 W/m 9,0 C 10,1 C 0,0 km/h
23.10.2019 21:30 10,1 C 93 % 1013,8 hPa 0,0 l/m 0,0 km/h S-SO 147 0 min 0,0 UV-I 0 W/m 9,0 C 10,1 C 0,0 km/h
23.10.2019 21:27 10,2 C 93 % 1013,8 hPa 0,0 l/m 0,0 km/h S-SO 147 0 min 0,0 UV-I 0 W/m 9,1 C 10,2 C 0,0 km/h
23.10.2019 21:24 10,3 C 94 % 1013,8 hPa 0,0 l/m 0,0 km/h S-SO 147 0 min 0,0 UV-I 0 W/m 9,4 C 10,3 C 0,0 km/h
23.10.2019 21:21 10,3 C 94 % 1013,8 hPa 0,0 l/m 0,0 km/h S-SO 147 0 min 0,0 UV-I 0 W/m 9,4 C 10,3 C 0,0 km/h
23.10.2019 21:18 10,4 C 93 % 1013,9 hPa 0,0 l/m 0,0 km/h S-SO 147 0 min 0,0 UV-I 0 W/m 9,3 C 10,4 C 0,0 km/h
23.10.2019 21:15 10,4 C 93 % 1013,9 hPa 0,0 l/m 0,0 km/h S-SO 147 0 min 0,0 UV-I 0 W/m 9,3 C 10,4 C 0,0 km/h
23.10.2019 21:12 10,5 C 93 % 1013,8 hPa 0,0 l/m 0,0 km/h S-SO 147 0 min 0,0 UV-I 0 W/m 9,4 C 10,5 C 0,0 km/h
23.10.2019 21:09 10,6 C 93 % 1013,8 hPa 0,0 l/m 0,0 km/h S-SO 147 0 min 0,0 UV-I 0 W/m 9,5 C 10,6 C 0,0 km/h
23.10.2019 21:06 10,7 C 93 % 1013,9 hPa 0,0 l/m 0,0 km/h S-SO 147 0 min 0,0 UV-I 0 W/m 9,6 C 10,7 C 0,0 km/h
23.10.2019 21:03 10,7 C 93 % 1013,9 hPa 0,0 l/m 0,0 km/h S-SO 147 0 min 0,0 UV-I 0 W/m 9,6 C 10,7 C 0,0 km/h
23.10.2019 21:00 10,8 C 93 % 1013,8 hPa 0,0 l/m 0,0 km/h S-SO 147 0 min 0,0 UV-I 0 W/m 9,7 C 10,8 C 0,0 km/h
23.10.2019 20:57 10,8 C 93 % 1013,9 hPa 0,0 l/m 0,0 km/h S-SO 147 0 min 0,0 UV-I 0 W/m 9,7 C 10,8 C 0,0 km/h
23.10.2019 20:54 10,9 C 93 % 1013,9 hPa 0,0 l/m 0,0 km/h S-SO 147 0 min 0,0 UV-I 0 W/m 9,8 C 10,9 C 0,0 km/h
23.10.2019 20:51 10,9 C 93 % 1013,9 hPa 0,0 l/m 1,2 km/h S-SO 147 0 min 0,0 UV-I 0 W/m 9,8 C 10,9 C 3,2 km/h
23.10.2019 20:48 11,1 C 93 % 1014,0 hPa 0,0 l/m 1,0 km/h S-SO 147 0 min 0,0 UV-I 0 W/m 10,0 C 11,1 C 3,2 km/h
23.10.2019 20:45 11,1 C 93 % 1013,9 hPa 0,0 l/m 1,2 km/h S-SO 147 0 min 0,0 UV-I 0 W/m 10,0 C 11,1 C 3,2 km/h
23.10.2019 20:42 11,2 C 93 % 1014,0 hPa 0,0 l/m 0,1 km/h S-SO 147 0 min 0,0 UV-I 0 W/m 10,1 C 11,2 C 1,6 km/h
23.10.2019 20:39 11,3 C 93 % 1014,0 hPa 0,0 l/m 0,2 km/h S-SO 147 0 min 0,0 UV-I 0 W/m 10,2 C 11,3 C 1,6 km/h
23.10.2019 20:36 11,3 C 93 % 1014,0 hPa 0,0 l/m 0,1 km/h S-SO 147 0 min 0,0 UV-I 0 W/m 10,2 C 11,3 C 1,6 km/h
23.10.2019 20:33 11,4 C 93 % 1014,0 hPa 0,0 l/m 0,0 km/h S-SO 147 0 min 0,0 UV-I 0 W/m 10,3 C 11,4 C 0,0 km/h
23.10.2019 20:30 11,5 C 93 % 1014,0 hPa 0,0 l/m 0,0 km/h S-SO 147 0 min 0,0 UV-I 0 W/m 10,4 C 11,5 C 0,0 km/h
23.10.2019 20:27 11,6 C 93 % 1013,9 hPa 0,0 l/m 0,0 km/h S-SO 147 0 min 0,0 UV-I 0 W/m 10,5 C 11,6 C 0,0 km/h
23.10.2019 20:24 11,6 C 93 % 1014,0 hPa 0,0 l/m 0,0 km/h S-SO 147 0 min 0,0 UV-I 0 W/m 10,5 C 11,6 C 0,0 km/h
23.10.2019 20:21 11,6 C 93 % 1013,9 hPa 0,0 l/m 0,0 km/h S-SO 147 0 min 0,0 UV-I 0 W/m 10,5 C 11,6 C 1,6 km/h
23.10.2019 20:18 11,7 C 92 % 1013,9 hPa 0,0 l/m 0,0 km/h S-SO 147 0 min 0,0 UV-I 0 W/m 10,4 C 11,7 C 0,0 km/h
23.10.2019 20:15 11,7 C 92 % 1014,0 hPa 0,0 l/m 0,0 km/h S-SO 147 0 min 0,0 UV-I 0 W/m 10,4 C 11,7 C 0,0 km/h
23.10.2019 20:12 11,8 C 92 % 1014,1 hPa 0,0 l/m 0,7 km/h S-SO 147 0 min 0,0 UV-I 0 W/m 10,5 C 11,8 C 3,2 km/h
23.10.2019 20:09 11,8 C 92 % 1014,1 hPa 0,0 l/m 0,4 km/h S-SO 147 0 min 0,0 UV-I 0 W/m 10,5 C 11,8 C 3,2 km/h
23.10.2019 20:06 11,8 C 92 % 1014,1 hPa 0,0 l/m 0,7 km/h S-SO 147 0 min 0,0 UV-I 0 W/m 10,5 C 11,8 C 3,2 km/h
23.10.2019 20:03 11,9 C 92 % 1014,1 hPa 0,0 l/m 0,0 km/h S-SO 147 0 min 0,0 UV-I 0 W/m 10,6 C 11,9 C 1,6 km/h
23.10.2019 20:00 11,9 C 92 % 1014,1 hPa 0,0 l/m 0,0 km/h S-SO 147 0 min 0,0 UV-I 0 W/m 10,6 C 11,9 C 0,0 km/h
23.10.2019 19:57 12,0 C 91 % 1014,1 hPa 0,0 l/m 0,0 km/h S-SO 147 0 min 0,0 UV-I 0 W/m 10,6 C 12,0 C 0,0 km/h
23.10.2019 19:54 12,1 C 91 % 1014,1 hPa 0,0 l/m 0,0 km/h S-SO 147 0 min 0,0 UV-I 0 W/m 10,7 C 12,1 C 1,6 km/h
23.10.2019 19:51 12,2 C 91 % 1014,0 hPa 0,0 l/m 0,0 km/h S-SO 147 0 min 0,0 UV-I 0 W/m 10,8 C 12,2 C 0,0 km/h
23.10.2019 19:48 12,2 C 91 % 1014,0 hPa 0,0 l/m 0,2 km/h S-SO 147 0 min 0,0 UV-I 0 W/m 10,8 C 12,2 C 1,6 km/h
23.10.2019 19:45 12,3 C 91 % 1014,0 hPa 0,0 l/m 0,5 km/h S-SO 147 0 min 0,0 UV-I 0 W/m 10,9 C 12,3 C 3,2 km/h
23.10.2019 19:42 12,4 C 91 % 1013,9 hPa 0,0 l/m 0,3 km/h S-SO 147 0 min 0,0 UV-I 0 W/m 11,0 C 12,4 C 1,6 km/h
23.10.2019 19:39 12,6 C 91 % 1014,0 hPa 0,0 l/m 0,0 km/h S-SO 147 0 min 0,0 UV-I 0 W/m 11,2 C 12,6 C 0,0 km/h
23.10.2019 19:36 12,6 C 91 % 1013,9 hPa 0,0 l/m 0,2 km/h S-SO 147 0 min 0,0 UV-I 0 W/m 11,2 C 12,6 C 1,6 km/h
23.10.2019 19:33 12,7 C 91 % 1013,9 hPa 0,0 l/m 0,0 km/h S-SO 147 0 min 0,0 UV-I 0 W/m 11,3 C 12,7 C 1,6 km/h
23.10.2019 19:30 12,8 C 91 % 1013,9 hPa 0,0 l/m 0,0 km/h S-SO 147 0 min 0,0 UV-I 0 W/m 11,4 C 12,8 C 1,6 km/h
23.10.2019 19:27 12,8 C 90 % 1013,8 hPa 0,0 l/m 0,0 km/h S-SO 147 0 min 0,0 UV-I 0 W/m 11,2 C 12,8 C 0,0 km/h
23.10.2019 19:24 12,9 C 90 % 1013,9 hPa 0,0 l/m 0,0 km/h S-SO 147 0 min 0,0 UV-I 0 W/m 11,3 C 12,9 C 0,0 km/h
23.10.2019 19:21 13,1 C 91 % 1013,9 hPa 0,0 l/m 0,0 km/h S-SO 147 0 min 0,0 UV-I 0 W/m 11,7 C 13,1 C 0,0 km/h
23.10.2019 19:18 13,1 C 90 % 1013,9 hPa 0,0 l/m 0,0 km/h S-SO 147 0 min 0,0 UV-I 0 W/m 11,5 C 13,1 C 0,0 km/h
23.10.2019 19:15 13,2 C 90 % 1014,0 hPa 0,0 l/m 0,0 km/h S-SO 147 0 min 0,0 UV-I 0 W/m 11,6 C 13,2 C 0,0 km/h
23.10.2019 19:12 13,3 C 90 % 1013,9 hPa 0,0 l/m 0,0 km/h S-SO 147 0 min 0,0 UV-I 0 W/m 11,7 C 13,3 C 0,0 km/h
23.10.2019 19:09 13,3 C 90 % 1013,9 hPa 0,0 l/m 0,0 km/h S-SO 147 0 min 0,0 UV-I 0 W/m 11,7 C 13,3 C 0,0 km/h
23.10.2019 19:06 13,4 C 90 % 1014,0 hPa 0,0 l/m 0,1 km/h S-SO 147 0 min 0,0 UV-I 0 W/m 11,8 C 13,4 C 1,6 km/h
23.10.2019 19:03 13,6 C 89 % 1014,0 hPa 0,0 l/m 0,8 km/h S-SO 147 0 min 0,0 UV-I 0 W/m 11,8 C 13,6 C 3,2 km/h
23.10.2019 19:00 13,6 C 89 % 1013,9 hPa 0,0 l/m 2,5 km/h S-SO 147 0 min 0,0 UV-I 0 W/m 11,8 C 13,6 C 6,4 km/h
23.10.2019 18:57 13,7 C 89 % 1013,9 hPa 0,0 l/m 0,0 km/h S-SO 147 0 min 0,0 UV-I 0 W/m 11,9 C 13,7 C 1,6 km/h
_ Min-Zeit 23:24 15:36 22:42 - 00:00 - - - - - 23:18 23:24 00:00
Minimum _ 7,7 C 74 % 1013,6 hPa - 0,0 km/h - - - - - 6,9 C 7,7 C 0,0 km/h
_ Max-Zeit 15:27 08:12 00:00 00:00 14:57 - - 11:48 12:15 12:15 15:27 15:30 14:48
Maximum _ 20,8 C 100 % 1021,2 hPa 0,0 l/m 13,7 km/h
SO
- - 3 min 3,0 UV-I 529 W/m 16,2 C 20,8 C 29,0 km/h
O-SO
Durchschnitt _ 14,1 C 91 % 1017,1 hPa #0,0 l/m 2,1 km/h S-SO - #4:18 h 1,8 UV-I 206 W/m 12,6 C 13,9 C 4,7 km/h
Schulla EDV